Location: Wiesbaden
(50.0830°N, 8.2500°E)
Time: 06:59:04
(UTC+02:00)

ISS - Pass Details

Date: 21 May 2019
Orbit: 408 x 418 km, 51.6° (Epoch: 27 May)

Event Time Altitude Azimuth Distance (km) Brightness Sun altitude
Rises 01:54:31 0° 285° (WNW) 2,362 0.2 -19.5°
Reaches altitude 10° 01:56:37 10° 285° (WNW) 1,498 -0.9 -19.5°
Maximum altitude 01:59:59 89° 199° (SSW) 424 -3.9 -19.4°
Enters shadow 02:00:59 43° 108° (ESE) 600 -3.1 -19.3°
